Home > Weather > Guildford > Past weeks

Flag for United Kingdom Weather for the Past 2 Weeks in Guildford, England, United Kingdom

Now
43 °F

Partly sunny.


Feels Like: 37 °F
Forecast: 35 / 46 °F
Wind: 10 mph from Northwest

Location: Farnborough Airport

Current Time: Feb 10, 2016 at 11:08:35 AM

Latest Report: Feb 10, 2016 at 10:20 AM


Visibility: N/A

Pressure: 29.42 "Hg

Humidity: 81%

Dew point: 37 °F

Location of GuildfordLocation

Historic Weather in Guildford — Graph

°F

Guildford Temperature Yesterday

Maximum temperature yesterday: 45 °F (at 12:50 PM)
Minimum temperature yesterday: 39 °F (at 6:50 AM)
Average temperature yesterday: 41 °F

High & Low Weather Summary for the Past Weeks

 TemperatureHumidityPressure
High55 °F (Jan 27, 1:20 PM)100% (Jan 26, 12:50 PM)30.39 "Hg (Jan 26, 12:50 PM)
Low34 °F (Jan 28, 7:50 AM)49% (Jan 30, 12:50 PM)29.06 "Hg (Feb 8, 6:50 AM)
Average48 °F84%29.83 "Hg
* Reported Jan 26 9:20 AM — Feb 10 9:50 AM, Guildford, Weather by CustomWeather, © 2016

Note: Actual official high and low records may vary slightly from our data, if they occured in-between our weather recording intervals... More about our weather records

Advertising

Guildford Weather History for the Previous 24 Hours

 ConditionsComfort  
Time TempWeatherWind HumidityBarometerVisibility
9:50 AM
Wed, Feb 10
41 °FScattered clouds.8 mph87%29.42 "HgN/A
9:20 AM41 °FScattered clouds.10 mph87%29.42 "HgN/A
8:50 AM41 °FScattered clouds.13 mph87%29.39 "HgN/A
8:20 AM41 °FScattered clouds.12 mph93%29.39 "HgN/A
7:50 AM39 °FScattered clouds.13 mph93%29.36 "HgN/A
7:20 AM39 °FPassing clouds.12 mph93%29.36 "HgN/A
6:50 AM41 °FLight rain. Passing clouds.12 mph81%29.36 "HgN/A
7:50 PM
Tue, Feb 9
39 °FPassing clouds.15 mph81%29.18 "HgN/A
6:50 PM39 °FScattered showers. Passing clouds.15 mph81%29.18 "HgN/A
6:20 PM41 °FPassing clouds.13 mph81%29.18 "HgN/A
5:50 PM41 °FScattered showers. Passing clouds.10 mph81%29.18 "HgN/A
5:20 PM39 °FSprinkles. Passing clouds.10 mph87%29.18 "Hg6 mi
4:50 PM41 °FScattered clouds.13 mph70%29.15 "HgN/A
4:20 PM43 °FPassing clouds.15 mph61%29.12 "HgN/A
3:50 PM43 °FPassing clouds.14 mph61%29.12 "HgN/A
3:20 PM43 °FPassing clouds.14 mph57%29.12 "HgN/A
2:20 PM45 °FPassing clouds.13 mph57%29.09 "HgN/A
1:20 PM45 °FPassing clouds.14 mph61%29.09 "HgN/A
12:50 PM45 °FPassing clouds.10 mph61%29.09 "HgN/A
12:20 PM43 °FPassing clouds.12 mph71%29.09 "HgN/A
11:50 AM41 °FPassing clouds.10 mph76%29.12 "HgN/A
11:20 AM41 °FPassing clouds.8 mph87%29.09 "HgN/A
Weather by CustomWeather, © 2016

See weather overviewHow to use our weather pages